Regional Weather Roundup
Issued by NWS

Home | Current Version | Previous Version | Graphics & Text | Print | Product List | Glossary Off
Versions: 1 2 3 4 5 6 7 8 9 10 11 12 13 14 15 16 17 18 19 20 21 22 23 24 25 26 27 28 29 30 31 32 33 34 35 36 37 38 39 40 41 42 43 44 45 46 47 48 49 50

000
ASUS43 KDMX 282307
RWRIA

WEATHER ROUNDUP FOR IOWA
NATIONAL WEATHER SERVICE DES MOINES IA
500 PM CST SUN DEC 28 2014

NOTE: "FAIR" INDICATES FEW OR NO CLOUDS BELOW 12,000 FEET WITH NO
SIGNIFICANT WEATHER AND/OR OBSTRUCTIONS TO VISIBILITY.

* - THESE STATIONS ARE NOT NWS STATIONS...THUS NOT UNDER NWS
QUALITY CONTROL.  THEY ALSO DO NOT REPORT WEATHER SUCH
AS PRECIPITATION OR FOG.

IAZ001>003-012>014-020>022-031>034-043>046-290000-
   NORTHWEST IOWA

CITY           SKY/WX    TMP DP  RH WIND       PRES   REMARKS
CARROLL *      CLEAR     25  21  86 NE6       30.14R WCI  18
CHEROKEE *     MOCLDY    21  18  86 E3        30.16R
DENISON *      CLEAR     25  21  86 NE3       30.12R
LE MARS *      CLEAR     19  18  93 N5        30.16S WCI  13
ORANGE CITY *  CLEAR     21  18  86 NE7       30.14S WCI  13
SHELDON *      CLEAR     19  18  93 NE9       30.15R WCI   9
SIOUX CITY     MOCLDY    21  15  78 CALM      30.16R
SPENCER        CLOUDY    21  16  81 NE13      30.16R WCI   9
STORM LAKE *   CLEAR     18  16  93 E8        30.15R WCI   7
$$

IAZ055>058-069>071-079>083-090>094-290000-
   SOUTHWEST IOWA

CITY           SKY/WX    TMP DP  RH WIND       PRES   REMARKS
ATLANTIC *     CLEAR     32  25  74 CALM      30.12R
AUDUBON *      CLEAR     28  19  69 CALM      30.13R
CLARINDA *     CLEAR     32  25  74 CALM      30.14R
COUNCIL BLFS * CLEAR     30  21  69 NW3       30.10S
CRESTON *      CLEAR     32  23  69 CALM      30.12R
HARLAN  *      CLEAR     30  27  86 CALM      30.16R
LAMONI         CLEAR     34  19  54 SW5       30.12S WCI  30
RED OAK *      CLEAR     32  23  69 CALM      30.12S
SHENANDOAH *   CLEAR     36  25  64 CALM      30.13S
$$

IAZ047>049-059>061-072>074-084-290000-
   CENTRAL IOWA

CITY           SKY/WX    TMP DP  RH WIND       PRES   REMARKS
AMES           CLEAR     29  23  78 CALM      30.15R
ANKENY *       CLEAR     30  21  69 NE5       30.15R WCI  25
CHARITON *     CLEAR     34  23  64 CALM      30.13S
DES MOINES     MOCLDY    34  21  59 CALM      30.14S
GRINNELL*      CLEAR     32  21  64 CALM      30.15R
KNOXVILLE *    CLEAR     34  21  60 CALM      30.13S
MARSHALLTOWN   PTCLDY    28  23  81 N6        30.14S WCI  22
PELLA *        CLEAR     32  23  69 CALM      30.16R
PERRY *          N/A     30  25  80 NE3       30.14S
$$

IAZ004>006-015-016-023>025-035-036-290000-
   NORTH CENTRAL IOWA

CITY           SKY/WX    TMP DP  RH WIND       PRES   REMARKS
ALGONA *       CLEAR     19  16  86 NE9       30.17S WCI   9
CLARION *      CLEAR     18  16  93 NE7       30.17R WCI   8
ESTHERVILLE    MOCLDY    17  14  88 N10       30.16S WCI   5
FORT DODGE *   PTCLDY    19  12  73 N7        30.17R WCI  10
MASON CITY     CLEAR     13   9  84 NE8       30.19R WCI   2
FOREST CITY *  CLEAR     19  14  79 N5        30.18R WCI  13
IOWA FALLS *     N/A     27  23  86 N6        30.16S WCI  20
$$

IAZ007>011-017>019-026>030-037>042-050>054-066-290000-
   NORTHEAST IOWA

CITY           SKY/WX    TMP DP  RH WIND       PRES   REMARKS
CEDAR RAPIDS   CLEAR     30  17  58 CALM      30.16R
CHARLES CITY * CLEAR     21  18  86 N7        30.19R WCI  13
CLINTON *      CLEAR     28  18  64 CALM      30.21R
DECORAH *      CLEAR     25  19  80 NW6       30.17R WCI  18
DUBUQUE        CLEAR     26  15  63 CALM      30.16R
MONTICELLO *   CLEAR     28  16  59 CALM      30.17S
OELWEIN *      CLEAR     28  23  80 N5        30.17R WCI  23
WATERLOO       CLEAR     28  21  75 NW3       30.17R
$$

IAZ064-065-067-068-078-290000-
   EAST CENTRAL IOWA

CITY           SKY/WX    TMP DP  RH WIND       PRES   REMARKS
DAVENPORT      CLEAR     30  18  60 CALM      30.18R
IOWA CITY      CLEAR     31  18  58 CALM      30.19R
MT. PLEASANT * CLEAR     32  16  51 CALM      30.18R
MUSCATINE *    CLEAR     32  16  51 CALM      30.19S
QUAD CITIES    CLEAR     30  21  69 CALM      30.18R
$$

IAZ062-063-075>077-085>089-095>099-290000-
   SOUTHEAST IOWA

CITY           SKY/WX    TMP DP  RH WIND       PRES   REMARKS
BURLINGTON     CLEAR     31  17  56 S3        30.16S
FAIRFIELD *    CLEAR     34  18  51 CALM      30.16S
FORT MADISON * CLEAR     36  14  41 CALM      30.17F
KEOKUK *       CLEAR     34  12  40 CALM      30.16F
OSKALOOSA *      N/A     32  23  69 CALM      30.15S
CENTERVILLE *  CLEAR     32  21  64 S3        30.15S
OTTUMWA        CLEAR     33  19  56 NW3       30.15S
WASHINGTON *   CLEAR     32  16  51 CALM      30.17S
$$

ABBREVIATIONS USED IN REMARKS
   TC - TEMPERATURES IN CELSIUS
  WCI - WIND CHILL INDEX
   HX - HEAT INDEX
  VSB - VISIBILITY
$$




USA.gov is the U.S. government's official web portal to all federal, state and local government web resources and services.